SAS2303 ENGM-ENKB

Flight info

Callsign SAS2303
Flight time 0h 43m
Altitude 30000
Route EVTOG DCT PIGED DCT VEPUL
Aircraft E195/M-SDE3GILORVW/S

Departure

Time 2026-04-12 10:37
Airport Oslo-Gardermoen International Airport (ENGM)

Arrival

Time 2026-04-12 11:20
Airport Kristiansund Airport, Kvernberget (ENKB)
Time Latitude Longitude Altitude Speed Heading
2026-04-12 10:14 60.19584 11.09275 684 ft 0 kts 196°
2026-04-12 10:26 60.19595 11.09281 682 ft 2 kts 195°
2026-04-12 10:26 60.19611 11.09290 682 ft 2 kts 196°
2026-04-12 10:27 60.19627 11.09300 678 ft 2 kts 196°
2026-04-12 10:27 60.19643 11.09309 676 ft 2 kts 197°
2026-04-12 10:27 60.19659 11.09319 675 ft 2 kts 199°
2026-04-12 10:27 60.19674 11.09331 677 ft 2 kts 207°
2026-04-12 10:28 60.19687 11.09352 678 ft 2 kts 272°
2026-04-12 10:28 60.19686 11.09367 678 ft 0 kts 285°
2026-04-12 10:29 60.19688 11.09351 678 ft 3 kts 285°
2026-04-12 10:30 60.19710 11.09197 680 ft 21 kts 286°
2026-04-12 10:30 60.19742 11.08973 681 ft 17 kts 285°
2026-04-12 10:30 60.19791 11.08714 675 ft 20 kts 321°
2026-04-12 10:30 60.19913 11.08752 678 ft 22 kts 16°
2026-04-12 10:31 60.20070 11.08847 676 ft 24 kts 18°
2026-04-12 10:31 60.20238 11.08941 680 ft 25 kts 15°
2026-04-12 10:31 60.20410 11.09040 681 ft 26 kts 17°
2026-04-12 10:31 60.20588 11.09142 681 ft 27 kts 16°
2026-04-12 10:32 60.20770 11.09249 682 ft 27 kts 15°
2026-04-12 10:32 60.20955 11.09353 684 ft 28 kts 16°
2026-04-12 10:32 60.21143 11.09462 685 ft 28 kts 16°
2026-04-12 10:32 60.21304 11.09556 684 ft 24 kts 17°
2026-04-12 10:33 60.21433 11.09630 684 ft 16 kts 15°
2026-04-12 10:33 60.21527 11.09584 684 ft 19 kts 311°
2026-04-12 10:33 60.21562 11.09401 682 ft 0 kts 286°
2026-04-12 10:33 60.21562 11.09399 682 ft 1 kts 286°
2026-04-12 10:34 60.21569 11.09350 679 ft 7 kts 286°
2026-04-12 10:34 60.21582 11.09240 679 ft 9 kts 274°
2026-04-12 10:34 60.21548 11.09133 683 ft 10 kts 201°
2026-04-12 10:34 60.21532 11.09124 683 ft 0 kts 197°
2026-04-12 10:36 60.21443 11.09072 682 ft 41 kts 197°
2026-04-12 10:36 60.20951 11.08788 679 ft 105 kts 196°
2026-04-12 10:36 60.20405 11.08477 683 ft 139 kts 192°
2026-04-12 10:36 60.19392 11.08096 1094 ft 154 kts 184°
2026-04-12 10:37 60.17962 11.07582 1979 ft 169 kts 194°
2026-04-12 10:37 60.16858 11.06477 2442 ft 187 kts 213°
2026-04-12 10:37 60.15920 11.04507 2925 ft 203 kts 232°
2026-04-12 10:37 60.15299 11.01901 3551 ft 210 kts 244°
2026-04-12 10:38 60.14758 10.99027 3955 ft 228 kts 246°
2026-04-12 10:38 60.14400 10.96985 4319 ft 236 kts 248°
2026-04-12 10:38 60.14027 10.93619 4710 ft 260 kts 259°
2026-04-12 10:38 60.13858 10.89932 5305 ft 269 kts 262°
2026-04-12 10:39 60.13759 10.86218 5734 ft 270 kts 263°
2026-04-12 10:39 60.13647 10.82419 6414 ft 274 kts 262°
2026-04-12 10:39 60.13525 10.78604 7092 ft 275 kts 261°
2026-04-12 10:39 60.13394 10.74753 7726 ft 278 kts 261°
2026-04-12 10:40 60.13265 10.70876 8364 ft 280 kts 261°
2026-04-12 10:40 60.13214 10.66932 8980 ft 288 kts 271°
2026-04-12 10:40 60.13907 10.63091 9590 ft 304 kts 301°
2026-04-12 10:40 60.15502 10.60257 10225 ft 314 kts 327°
2026-04-12 10:41 60.17493 10.58181 10532 ft 330 kts 333°
2026-04-12 10:41 60.19616 10.56227 10993 ft 339 kts 334°
2026-04-12 10:41 60.21752 10.54203 11649 ft 340 kts 333°
2026-04-12 10:41 60.23894 10.52171 12408 ft 339 kts 334°
2026-04-12 10:42 60.26073 10.50345 13137 ft 341 kts 339°
2026-04-12 10:42 60.28320 10.48738 13891 ft 343 kts 339°
2026-04-12 10:42 60.30571 10.47085 14561 ft 345 kts 338°
2026-04-12 10:42 60.32791 10.45401 15223 ft 346 kts 338°
2026-04-12 10:43 60.37328 10.41906 16532 ft 351 kts 337°
2026-04-12 10:43 60.39621 10.40139 17209 ft 353 kts 337°
2026-04-12 10:43 60.41930 10.38359 17899 ft 355 kts 337°
2026-04-12 10:44 60.44244 10.36561 18565 ft 357 kts 337°
2026-04-12 10:44 60.46569 10.34755 19180 ft 360 kts 337°
2026-04-12 10:44 60.48868 10.32710 19766 ft 361 kts 330°
2026-04-12 10:44 60.51052 10.30208 20425 ft 362 kts 327°
2026-04-12 10:45 60.53225 10.27571 21013 ft 364 kts 327°
2026-04-12 10:45 60.55413 10.24936 21568 ft 367 kts 328°
2026-04-12 10:45 60.57630 10.22299 22139 ft 370 kts 328°
2026-04-12 10:45 60.59856 10.19654 22760 ft 371 kts 328°
2026-04-12 10:46 60.62091 10.17006 23306 ft 374 kts 328°
2026-04-12 10:46 60.64350 10.14325 23827 ft 377 kts 328°
2026-04-12 10:46 60.66620 10.11623 24320 ft 379 kts 328°
2026-04-12 10:46 60.68896 10.08913 24875 ft 379 kts 328°
2026-04-12 10:47 60.71180 10.06181 25331 ft 382 kts 328°
2026-04-12 10:47 60.73483 10.03429 25759 ft 385 kts 328°
2026-04-12 10:47 60.75805 10.00651 26168 ft 387 kts 328°
2026-04-12 10:47 60.78130 9.97862 26620 ft 389 kts 328°
2026-04-12 10:48 60.80473 9.95047 27001 ft 391 kts 328°
2026-04-12 10:48 60.82836 9.92220 27386 ft 394 kts 328°
2026-04-12 10:48 60.85271 9.89555 27778 ft 397 kts 331°
2026-04-12 10:48 60.87731 9.86979 28213 ft 398 kts 331°
2026-04-12 10:49 60.90204 9.84356 28578 ft 401 kts 330°
2026-04-12 10:49 60.92685 9.81692 28936 ft 403 kts 330°
2026-04-12 10:49 60.95133 9.79042 29417 ft 402 kts 330°
2026-04-12 10:49 60.97603 9.76364 30002 ft 399 kts 330°
2026-04-12 10:50 61.00034 9.73719 30213 ft 388 kts 330°
2026-04-12 10:50 61.02371 9.71174 30156 ft 371 kts 329°
2026-04-12 10:50 61.04610 9.68730 30112 ft 357 kts 329°
2026-04-12 10:50 61.06783 9.66351 30125 ft 353 kts 329°
2026-04-12 10:51 61.11161 9.61537 30138 ft 358 kts 329°
2026-04-12 10:51 61.15569 9.56686 30155 ft 357 kts 329°
2026-04-12 10:52 61.19936 9.51866 30173 ft 358 kts 329°
2026-04-12 10:52 61.24323 9.47010 30127 ft 356 kts 329°
2026-04-12 10:53 61.28695 9.42152 30125 ft 357 kts 329°
2026-04-12 10:53 61.33070 9.37275 30118 ft 356 kts 329°
2026-04-12 10:54 61.37430 9.32403 30122 ft 355 kts 329°
2026-04-12 10:54 61.41784 9.27518 30123 ft 355 kts 329°
2026-04-12 10:55 61.46126 9.22632 30117 ft 355 kts 328°
2026-04-12 10:55 61.50472 9.17727 30111 ft 354 kts 328°
2026-04-12 10:56 61.54813 9.12809 30110 ft 354 kts 328°
2026-04-12 10:56 61.59147 9.07886 30103 ft 353 kts 328°
2026-04-12 10:57 61.63442 9.02995 30101 ft 354 kts 328°
2026-04-12 10:57 61.67771 8.98042 30086 ft 353 kts 328°
2026-04-12 10:58 61.72086 8.93093 30083 ft 353 kts 328°
2026-04-12 10:58 61.76399 8.88129 30075 ft 352 kts 328°
2026-04-12 10:59 61.80699 8.83166 30067 ft 352 kts 328°
2026-04-12 10:59 61.82864 8.80657 29748 ft 357 kts 328°
2026-04-12 10:59 61.85026 8.78146 29580 ft 353 kts 328°
2026-04-12 11:00 61.87186 8.75634 29178 ft 356 kts 328°
2026-04-12 11:00 61.89361 8.73093 28656 ft 357 kts 328°
2026-04-12 11:00 61.91529 8.70560 28185 ft 354 kts 328°
2026-04-12 11:00 61.93676 8.68047 27702 ft 350 kts 328°
2026-04-12 11:01 61.95798 8.65560 27235 ft 346 kts 328°
2026-04-12 11:01 61.97884 8.63063 26779 ft 342 kts 327°
2026-04-12 11:01 61.99939 8.60551 26316 ft 339 kts 327°
2026-04-12 11:01 62.01987 8.58043 25885 ft 337 kts 327°
2026-04-12 11:02 62.03990 8.55603 25411 ft 335 kts 327°
2026-04-12 11:02 62.06009 8.53135 24982 ft 333 kts 327°
2026-04-12 11:02 62.08015 8.50691 24522 ft 332 kts 327°
2026-04-12 11:02 62.10019 8.48239 24084 ft 329 kts 327°
2026-04-12 11:03 62.12000 8.45815 23640 ft 328 kts 327°
2026-04-12 11:03 62.13973 8.43402 23182 ft 324 kts 327°
2026-04-12 11:03 62.15924 8.41011 22761 ft 322 kts 327°
2026-04-12 11:03 62.17860 8.38628 22331 ft 321 kts 327°
2026-04-12 11:04 62.19795 8.36240 21911 ft 321 kts 327°
2026-04-12 11:04 62.21739 8.33891 21481 ft 321 kts 328°
2026-04-12 11:04 62.23722 8.31659 21035 ft 321 kts 329°
2026-04-12 11:04 62.25700 8.29461 20602 ft 320 kts 329°
2026-04-12 11:05 62.27651 8.27279 20185 ft 319 kts 328°
2026-04-12 11:05 62.29610 8.25054 19758 ft 317 kts 328°
2026-04-12 11:05 62.31554 8.22832 19338 ft 316 kts 328°
2026-04-12 11:05 62.33499 8.20602 18906 ft 315 kts 328°
2026-04-12 11:06 62.35437 8.18395 18483 ft 314 kts 328°
2026-04-12 11:06 62.37360 8.16173 18035 ft 314 kts 328°
2026-04-12 11:06 62.39276 8.13959 17644 ft 310 kts 328°
2026-04-12 11:06 62.41176 8.11782 17232 ft 310 kts 328°
2026-04-12 11:07 62.43073 8.09584 16800 ft 310 kts 328°
2026-04-12 11:07 62.44969 8.07394 16393 ft 308 kts 328°
2026-04-12 11:07 62.46853 8.05220 15979 ft 307 kts 328°
2026-04-12 11:07 62.48743 8.03028 15567 ft 307 kts 329°
2026-04-12 11:08 62.50619 8.00845 15154 ft 306 kts 328°
2026-04-12 11:08 62.52499 7.98667 14748 ft 305 kts 329°
2026-04-12 11:08 62.54368 7.96503 14327 ft 305 kts 329°
2026-04-12 11:08 62.56230 7.94317 13934 ft 303 kts 329°
2026-04-12 11:09 62.58075 7.92113 13510 ft 303 kts 329°
2026-04-12 11:09 62.59920 7.89934 13123 ft 300 kts 329°
2026-04-12 11:09 62.61749 7.87770 12710 ft 300 kts 329°
2026-04-12 11:09 62.63576 7.85611 12319 ft 298 kts 329°
2026-04-12 11:10 62.65393 7.83450 11923 ft 297 kts 329°
2026-04-12 11:10 62.67209 7.81299 11526 ft 296 kts 329°
2026-04-12 11:10 62.69010 7.79152 11129 ft 295 kts 329°
2026-04-12 11:10 62.70809 7.77016 10720 ft 293 kts 329°
2026-04-12 11:11 62.72583 7.74897 10369 ft 288 kts 329°
2026-04-12 11:11 62.74339 7.72791 9977 ft 288 kts 329°
2026-04-12 11:11 62.76079 7.70706 9588 ft 289 kts 329°
2026-04-12 11:11 62.77836 7.68603 9156 ft 287 kts 329°
2026-04-12 11:12 62.79571 7.66526 8837 ft 282 kts 330°
2026-04-12 11:12 62.81305 7.64510 8454 ft 283 kts 330°
2026-04-12 11:12 62.83041 7.62448 8060 ft 282 kts 329°
2026-04-12 11:12 62.84742 7.60388 7809 ft 276 kts 329°
2026-04-12 11:13 62.86417 7.58332 7444 ft 276 kts 329°
2026-04-12 11:13 62.88117 7.56353 7140 ft 278 kts 330°
2026-04-12 11:13 62.89822 7.54304 6677 ft 280 kts 329°
2026-04-12 11:13 62.91521 7.52232 6330 ft 278 kts 329°
2026-04-12 11:14 62.93204 7.50188 5971 ft 275 kts 329°
2026-04-12 11:14 62.94868 7.48174 5608 ft 272 kts 329°
2026-04-12 11:14 62.96520 7.46171 5250 ft 269 kts 329°
2026-04-12 11:14 62.98176 7.44234 4879 ft 269 kts 334°
2026-04-12 11:15 62.99913 7.42866 4525 ft 267 kts 342°
2026-04-12 11:15 63.01721 7.41831 4221 ft 264 kts 351°
2026-04-12 11:15 63.03483 7.42201 3877 ft 255 kts 23°
2026-04-12 11:15 63.04815 7.44528 3581 ft 241 kts 54°
2026-04-12 11:16 63.05737 7.47534 3295 ft 233 kts 65°
2026-04-12 11:16 63.06298 7.50724 3064 ft 213 kts 76°
2026-04-12 11:16 63.06731 7.53754 2752 ft 202 kts 73°
2026-04-12 11:16 63.07213 7.56580 2470 ft 191 kts 74°
2026-04-12 11:17 63.07636 7.59321 2226 ft 187 kts 75°
2026-04-12 11:17 63.08051 7.62038 1960 ft 186 kts 74°
2026-04-12 11:17 63.08463 7.64718 1682 ft 179 kts 75°
2026-04-12 11:17 63.08848 7.67217 1448 ft 163 kts 75°
2026-04-12 11:18 63.09180 7.69437 1245 ft 143 kts 76°
2026-04-12 11:18 63.09486 7.71405 1049 ft 128 kts 75°
2026-04-12 11:18 63.09765 7.73179 907 ft 118 kts 77°
2026-04-12 11:18 63.09939 7.74320 813 ft 119 kts 77°
2026-04-12 11:19 63.10204 7.76050 671 ft 118 kts 78°
2026-04-12 11:19 63.10567 7.78325 469 ft 118 kts 78°
2026-04-12 11:19 63.10827 7.80051 303 ft 117 kts 79°
2026-04-12 11:19 63.11077 7.81693 212 ft 101 kts 79°
2026-04-12 11:20 63.11196 7.82543 215 ft 71 kts 72°
2026-04-12 11:20 63.11301 7.83225 216 ft 23 kts 64°
2026-04-12 11:20 63.11361 7.83248 212 ft 8 kts 342°
2026-04-12 11:20 63.11368 7.83242 214 ft 0 kts 341°
2026-04-12 11:21 63.11383 7.83232 212 ft 9 kts 340°
2026-04-12 11:21 63.11388 7.83100 211 ft 16 kts 251°
2026-04-12 11:21 63.11349 7.82847 210 ft 19 kts 251°
2026-04-12 11:21 63.11347 7.82707 217 ft 5 kts 316°
2026-04-12 11:22 63.11363 7.82693 210 ft 0 kts 340°